导读

ISTSAT-1是葡萄牙(PT)于2024年7月9日成功发射的人造卫星,作为葡萄牙航天领域的最新实践项目,该卫星承载着区域航天技术验证与空间探索的使命,为葡萄牙后续开展航天应用、空间科学研究奠定技术基础,也丰富了低轨卫星星座的布局。截至2026年3月,卫星已在轨运行超19个月,持续开展既定任务,推动葡萄牙航天产业发展。

基本信息
目录编号:
60238
目录名称:
ISTSAT-1
国际标识:
2024-128D
轨道中心:
EARTH
卫星名称:
冰岛 ISTSAT-1 卫星
卫星全名:
卫星状态:
在轨 (已飞行796 天)
发射日期:
2024-07-09 UTC
国别 :
(PT)
星等 :
--
该卫星已列入 空间交会检测服务 Space Conjunction Data Service (SCDS) ,当前飞行风险评估等级: 无高风险
轨道信息
数据来源 国际轨道数据
星历时间: 2026-09-13T08:06:18+0800
5小时前
查看轨道信息
半长轴: 6906.615km
偏心率: 0.0025417
轨道倾角: 61.986°
近地点辐角 148.120°
升交点赤经 255.394°
平近点角 212.144°
近地点: 510.923km
远地点: 546.033km
周期: 95.205分钟
每日圈数: 15.125332
详细信息
使用方式:
暂无
2D轨道图
3D轨道图
轨道高度分析图
轨道倾角分析图
轨道综合分析图
查看轨道综合分析图
与全量物体交会距离演化趋势
与全量物体交会风险概率演化趋势